This is the latest recevied weather packets stored in our database for station/object VK3HAG. If no packets are shown the sender has not sent any weather packets the latest 10 day(s).
| Time | Temp. | Humidity | Pressure | Rain* | Wind** | Luminosity | Snow |
|---|---|---|---|---|---|---|---|
| 1788151505 | 68° F | 59% | 770.1 mmHg | 0 in | - | - | - |
| 1788150604 | 69° F | 60% | 770.3 mmHg | 0 in | - | - | - |
| 1788149705 | 68° F | 59% | 770.5 mmHg | 0 in | - | - | - |
| 1788148805 | 67° F | 63% | 770.6 mmHg | 0 in | - | - | - |
| 1788147904 | 67° F | 65% | 770.8 mmHg | 0 in | - | - | - |
| 1788147005 | 66° F | 63% | 770.9 mmHg | 0 in | - | - | - |
| 1788146104 | 65° F | 69% | 771.1 mmHg | 0 in | - | - | - |
| 1788145204 | 64° F | 67% | 771.4 mmHg | 0 in | - | - | - |
| 1788144305 | 63° F | 69% | 771.5 mmHg | 0 in | - | - | - |
| 1788143404 | 62° F | 72% | 771.7 mmHg | 0 in | - | - | - |
| 1788142504 | 62° F | 72% | 772 mmHg | 0 in | - | - | - |
| 1788141604 | 62° F | 72% | 772.2 mmHg | 0 in | - | - | - |
| 1788140705 | 61° F | 75% | 772.3 mmHg | 0 in | - | - | - |
| 1788139805 | 60° F | 76% | 772.4 mmHg | 0 in | - | - | - |
| 1788138905 | 59° F | 75% | 772.6 mmHg | 0 in | - | - | - |
| 1788138005 | 59° F | 77% | 772.7 mmHg | 0 in | - | - | - |
| 1788137104 | 58° F | 79% | 772.9 mmHg | 0 in | - | - | - |
| 1788136204 | 57° F | 79% | 772.9 mmHg | 0 in | - | - | - |
| 1788135304 | 57° F | 81% | 772.9 mmHg | 0 in | - | - | - |
| 1788134405 | 56° F | 82% | 772.9 mmHg | 0 in | - | - | - |
| 1788133505 | 55° F | 82% | 772.9 mmHg | 0 in | - | - | - |
| 1788132604 | 55° F | 85% | 773 mmHg | 0 in | - | - | - |
| 1788131704 | 54° F | 88% | 773 mmHg | 0 in | - | - | - |
| 1788130804 | 53° F | 90% | 773 mmHg | 0 in | - | - | - |
| 1788129905 | 51° F | 91% | 773.1 mmHg | 0 in | - | - | - |
* Rain latest hour (hover to see other rain measurements)
** Current wind speed in m/s (hover to see current wind gust speed)